TimeCDT,TemperatureF,Dew PointF,Humidity,Sea Level PressureIn,VisibilityMPH,Wind Direction,Wind SpeedMPH,Gust SpeedMPH,PrecipitationIn,Events,Conditions,WindDirDegrees,DateUTC
12:54 AM,69.1,66.9,93,30.04,7.0,SSE,3.5,-,N/A,,Clear,160,2013-10-03 05:54:00
1:54 AM,69.1,66.9,93,30.04,5.0,Calm,Calm,-,N/A,,Partly Cloudy,0,2013-10-03 06:54:00
2:54 AM,70.0,68.0,93,30.03,7.0,SSE,3.5,-,0.00,,Overcast,160,2013-10-03 07:54:00
3:54 AM,70.0,68.0,93,30.03,5.0,Calm,Calm,-,N/A,,Overcast,0,2013-10-03 08:54:00
4:54 AM,70.0,68.0,93,30.04,6.0,Calm,Calm,-,N/A,,Overcast,0,2013-10-03 09:54:00
5:54 AM,70.0,68.0,93,30.05,4.0,Calm,Calm,-,0.00,Rain,Light Rain,0,2013-10-03 10:54:00
6:54 AM,70.0,68.0,93,30.06,7.0,Calm,Calm,-,0.01,,Overcast,0,2013-10-03 11:54:00
7:54 AM,71.1,68.0,90,30.06,6.0,Calm,Calm,-,N/A,,Overcast,0,2013-10-03 12:54:00
8:54 AM,72.0,69.1,91,30.08,8.0,Calm,Calm,-,N/A,,Overcast,0,2013-10-03 13:54:00
9:54 AM,75.9,69.1,79,30.07,10.0,SSW,6.9,-,0.00,,Scattered Clouds,210,2013-10-03 14:54:00
10:54 AM,79.0,68.0,69,30.05,10.0,SSW,9.2,-,N/A,,Clear,210,2013-10-03 15:54:00
11:54 AM,81.0,66.0,60,30.05,10.0,SSW,6.9,16.1,N/A,,Clear,200,2013-10-03 16:54:00
12:54 PM,82.9,66.0,56,30.02,10.0,South,12.7,16.1,N/A,,Scattered Clouds,170,2013-10-03 17:54:00
1:54 PM,84.0,64.9,53,30.00,10.0,SSW,9.2,-,N/A,,Partly Cloudy,200,2013-10-03 18:54:00
2:54 PM,84.0,63.0,49,29.98,10.0,South,12.7,20.7,N/A,,Clear,190,2013-10-03 19:54:00
3:54 PM,84.0,63.0,49,29.97,10.0,SSE,10.4,-,N/A,,Scattered Clouds,150,2013-10-03 20:54:00
4:54 PM,82.0,63.0,52,29.97,10.0,South,8.1,17.3,N/A,,Mostly Cloudy,170,2013-10-03 21:54:00
5:54 PM,81.0,63.0,54,29.97,10.0,South,5.8,-,N/A,,Clear,180,2013-10-03 22:54:00
6:54 PM,78.1,63.0,60,29.98,10.0,South,5.8,-,N/A,,Clear,180,2013-10-03 23:54:00
7:54 PM,73.9,63.0,68,29.99,10.0,Calm,Calm,-,N/A,,Clear,0,2013-10-04 00:54:00
8:54 PM,75.0,64.0,69,30.00,10.0,South,5.8,-,N/A,,Clear,170,2013-10-04 01:54:00
9:54 PM,73.9,64.0,71,30.01,10.0,South,4.6,-,N/A,,Mostly Cloudy,170,2013-10-04 02:54:00
11:54 PM,72.0,64.0,76,30.01,10.0,SSE,4.6,-,N/A,,Clear,160,2013-10-04 04:54:00